Regional Weather Roundup
Issued by NWS State College, PA

Home | Current Version | Previous Version | Text Only | Print | Product List | Glossary Off
Versions: 1 2 3 4 5 6 7 8 9 10 11 12 13 14 15 16 17 18 19 20 21 22 23 24 25 26 27 28 29 30 31 32 33 34 35 36 37 38 39 40 41 42 43 44 45 46 47 48 49 50

000
ASUS41 KCTP 251103
RWRCTP

REGIONAL WEATHER ROUNDUP
NATIONAL WEATHER SERVICE STATE COLLEGE PA
700 AM EDT TUE JUL 25 2017

Note: "fair" indicates few or no clouds below 12,000 feet with no
significant weather and/or obstructions to visibility.

* = STATION THAT DOES NOT REPORT PRECIPITATION /E.G. RAIN...SNOW...ETC/
    THUNDER OR FOG.

PAZ002>004-007>009-013>016-020>023-029>032-251200-
WESTERN PENNSYLVANIA

CITY           SKY/WX    TMP DP  RH WIND       PRES   REMARKS
ERIE           CLOUDY    65  56  72 N8        30.12R
MEADVILLE      CLOUDY    60  60 100 CALM      30.14R
FRANKLIN*      CLOUDY    57  55  94 CALM      30.14R
NEW CASTLE     CLOUDY    61  59  93 CALM      30.16R
BEAVER COUNTY  DRIZZLE   59  57  94 CALM      30.14
BUTLER*        CLOUDY    61  55  82 W5        30.13R
PITTSBURGH INT CLOUDY    62  58  86 W5        30.13R
PITTSBURGH     CLOUDY    62  53  72 NW5       30.12R
INDIANA*       CLOUDY    61  59  94 W6        30.15R
LATROBE        MOCLDY    63  57  82 NW6       30.13R
WASHINGTON CO* CLOUDY    61  55  82 CALM      30.14R
$$

PAZ004>006-010>012-017>019-024>028-033>037-041-042-045-046-049>053-251200-
CENTRAL PENNSYLVANIA

CITY           SKY/WX    TMP DP  RH WIND       PRES   REMARKS
BRADFORD       CLOUDY    58  57  97 NW10      30.11R
DUBOIS         CLOUDY    59  56  89 W6        30.11R
CLEARFIELD     CLOUDY    62  58  86 W5        30.11R
JOHNSTOWN      CLOUDY    58  56  93 NW10      30.12R
ALTOONA        CLOUDY    62  57  83 N5        30.11R
STATE COLLEGE  CLOUDY    63  57  82 CALM      30.08R
WILLIAMSPORT   CLOUDY    67  61  81 W6        30.03R
SELINSGROVE    CLOUDY    65  63  93 CALM      30.04R
FT INDIANTOWN  PTSUNNY   67  58  72 W5        30.03R
CAPITAL CITY   PTCLDY    66  57  72 W6        30.03R
HARRISBURG     PTCLDY    68  59  73 NW7       30.03R
YORK           CLEAR     63  60  90 W3        30.04R
$$

PAZ038>040-043-044-047-048-054-055-060>062-067>071-251200-
EASTERN PENNSYLVANIA

CITY           SKY/WX    TMP DP  RH WIND       PRES   REMARKS
SCRANTON       CLOUDY    67  63  87 CALM      30.03R
MOUNT POCONO   CLOUDY    61  61 100 CALM      30.05R
ALLENTOWN      CLOUDY    66  62  87 NE5       30.02R
QUAKERTOWN*    CLOUDY    64  64 100 SE3       30.03R
READING        PTSUNNY   67  65  93 NW6       30.01R
LANCASTER      SUNNY     65  62  90 W7        30.02R
COATESVILLE    NOT AVBL
POTTSTOWN      CLOUDY    64  64 100 NE3       30.04R FOG
BLUE BELL      CLOUDY    63  63 100 CALM      30.03S
DOYLESTOWN     CLOUDY    63  63 100 CALM      30.02R
WILLOW GROVE   NOT AVBL
NORTH PHILA    CLOUDY    67  63  87 NE6       30.03R
PHILADELPHIA   LGT RAIN  67  64  90 NE6       30.01R
$$



USA.gov is the U.S. government's official web portal to all federal, state and local government web resources and services.